User: anonymous   Login
Location: Unspecified
(0.0000°N, 0.0000°E)
Time: 00:21:58
(UTC+00:00)
Language:

Diapason D-1A - Orbit

View from above orbital plane
View from above orbital plane
View from above satellite
View from above satellite

Ground track
Ground track

The orbit data is extracted from the following two-line orbital elements,

1 02016U 66013A   21023.38419426  .00000122  00000-0  43181-4 0  9996
2 02016  34.0920   0.6834 1186377  89.8314 283.7898 12.59931550491319
Epoch (UTC): 23 January 2021 09:13:14
Eccentricity: 0.1186377
inclination: 34.0920°
perigee height: 497 km
apogee height: 2349 km
right ascension of ascending node: 0.6834°
argument of perigee: 89.8314°
revolutions per day: 12.59931550
mean anomaly at epoch: 283.7898°
orbit number at epoch: 49131

The dashed part of the orbit path shows where the satellite is in the earth's shadow,  

DLR